Location: Seattle
(47.6064°N, 122.3308°W)
Time: 16:14:20
(UTC-07:00)

S-56A Canister/Altair - Visible Passes

Search period start: 29 July 2021 00:00
Search period end: 08 August 2021 00:00
Orbit: 631 x 2501 km, 38.9° (Epoch: 29 July)

Date Brightness Start Highest point End Pass type
(mag) Time Alt. Az. Time Alt. Az. Time Alt. Az.
29 Jul 10.8 00:30:59 10° WSW 00:34:37 12° SW 00:37:06 11° SW visible
29 Jul 10.3 21:46:03 10° W 21:59:03 40° SSW 22:08:30 13° SSE visible
29 Jul 10.7 23:55:39 10° W 00:01:56 15° SW 00:05:54 12° SSW visible
30 Jul 10.4 21:12:19 10° W 21:25:53 44° SSW 21:36:44 10° SE visible
30 Jul 10.7 23:21:02 10° W 23:29:10 19° SW 23:34:44 13° SSW visible
31 Jul 10.7 22:46:43 10° W 22:56:19 22° SW 23:03:36 12° S visible
01 Aug 10.8 22:12:37 10° W 22:23:22 26° SW 22:32:24 10° S visible
02 Aug 10.9 21:38:40 10° W 21:50:21 29° SW 22:00:15 10° SSE visible
03 Aug 10.9 21:04:50 10° W 21:17:14 33° SW 21:27:57 10° SSE visible
04 Aug 11.3 22:42:07 10° WSW 22:47:08 13° SW 22:51:49 10° SW visible
05 Aug 11.2 22:06:58 10° W 22:14:15 16° SW 22:20:57 10° SSW visible
06 Aug 11.2 21:32:28 10° W 21:41:17 19° SW 21:49:26 10° SSW visible
07 Aug 11.3 20:58:18 10° W 21:08:15 22° SW 21:17:33 10° S visible
